User: anonymous   Login
Location: Gollag?dem
(16.8053°N, 80.8024°E)
Time: 15:20:03
(UTC+00:00)
Language:

deb Chang Zheng 4 - Orbit

View from above orbital plane
View from above orbital plane
View from above satellite
View from above satellite

Ground track
Ground track

The orbit data is extracted from the following two-line orbital elements,

1 20847U 90081K   20292.90029419 +.00002045 +00000-0 +24750-3 0  9990
2 20847 098.5606 272.2588 0016630 112.9836 247.3133 14.84834946586347
Epoch (UTC): 18 October 2020 21:36:25
Eccentricity: 0.0016630
inclination: 98.5606°
perigee height: 602 km
apogee height: 626 km
right ascension of ascending node: 272.2588°
argument of perigee: 112.9836°
revolutions per day: 14.84834946
mean anomaly at epoch: 247.3133°
orbit number at epoch: 58634

The dashed part of the orbit path shows where the satellite is in the earth's shadow,  

DLR